User: anonymous   Login
Location: Newark
(47.0000°N, 7.6833°E)
Time: 23:19:39
(UTC+00:00)
Language:

UNISAT 6 - Orbit

View from above orbital plane
View from above orbital plane
View from above satellite
View from above satellite

Ground track
Ground track

The orbit data is extracted from the following two-line orbital elements,

1 40012U 14033C   19287.72621151  .00000166  00000-0  31890-4 0  9998
2 40012  97.7397 149.1530 0059727  77.2185 283.5690 14.74017255286076
Epoch (UTC): 14 October 2019 17:25:44
Eccentricity: 0.0059727
inclination: 97.7397°
perigee height: 606 km
apogee height: 690 km
right ascension of ascending node: 149.1530°
argument of perigee: 77.2185°
revolutions per day: 14.74017255
mean anomaly at epoch: 283.5690°
orbit number at epoch: 28607

The dashed part of the orbit path shows where the satellite is in the earth's shadow,  

DLR